Darstellungsparameter: Aktuell verwendete Einstellungen:
Skalierung der Graphiken ... ?
xyx+y,   Skalierungsfaktor:      Skalierung: Modus: x, Faktor: 1
Darstellungszeitraum ... ?
Vom - - bis: - -   Zeitraum: 22.04.2020 - 24.04.2020
Min/Max/Avg-Anzeige ... ?
Zeige MMA aktuell
Zeige MMA Monat
Zeige MMA alles
Zeige --A aktuell
Zeige --A Monat
Zeige --A alles
Keine MMA-Anzeige
MMA:
Keine MMA-Graphiken
MMA-Basis: 22.04.2020 - 24.04.2020
Quicknavigation für Darstellung... ?
Tage:      1T, 2T, 3T, 5T -1T -2T -3T -5T +1T +2T +3T +5T
Wochen: 1W, 2W, 3W -1W -2W -3W +1W +2W +3W
Monate: 1M, 3M, 6M -1M -3M -6M +1M +3M +6M
Jahre:    1J, 3J, 5J, 10J -1J -3J -5J -10J +1J +3J +5J +10J
Nutze für die Darstellung ... ?
Originaldaten oder Mittelwerte auf ...
Stundenbasis Tagesbasis Wochenbasis
Monatsbasis Jahresbasis      Datenbasis: Original-Daten
Darstellen als:
Statistik (Auto) Statistik J:M      Darstellung:
Zur Graphik,    zurück zur Übersicht aller Sensoren.
 
Tabellarische Datenbersicht: ?
 
Sensor: Nr:Datum:Temp:Feuchte:Taupunkt:
Aussen-T/F 1 22-04-2020 00:00:00 11.4 C 58 % 3.44 C
2 22-04-2020 00:05:00 11.3 C 58 % 3.35 C
3 22-04-2020 00:10:00 11.2 C 60 % 3.73 C
4 22-04-2020 00:15:00 11.1 C 59 % 3.4 C
5 22-04-2020 00:20:00 11 C 58 % 3.07 C
6 22-04-2020 00:25:00 11.2 C 58 % 3.25 C
7 22-04-2020 00:30:00 11.4 C 59 % 3.68 C
8 22-04-2020 00:35:00 11.4 C 58 % 3.44 C
9 22-04-2020 00:40:00 11.4 C 57 % 3.2 C
10 22-04-2020 00:45:00 11.4 C 59 % 3.68 C
11 22-04-2020 00:50:00 11.3 C 59 % 3.59 C
12 22-04-2020 00:55:00 11.3 C 57 % 3.1 C
13 22-04-2020 01:00:00 11.3 C 58 % 3.35 C
14 22-04-2020 01:05:00 11.2 C 58 % 3.25 C
15 22-04-2020 01:10:00 11.1 C 59 % 3.4 C
16 22-04-2020 01:15:00 10.9 C 60 % 3.45 C
17 22-04-2020 01:20:00 10.7 C 61 % 3.5 C
18 22-04-2020 01:25:00 10.4 C 62 % 3.44 C
19 22-04-2020 01:30:00 10.2 C 62 % 3.25 C
20 22-04-2020 01:35:00 10.1 C 63 % 3.39 C
21 22-04-2020 01:40:00 10.1 C 63 % 3.39 C
22 22-04-2020 01:45:00 10.1 C 63 % 3.39 C
23 22-04-2020 01:50:00 10.1 C 63 % 3.39 C
24 22-04-2020 01:55:00 10.2 C 63 % 3.48 C
25 22-04-2020 02:00:00 10.3 C 62 % 3.35 C
Sensor: Nr:Datum:Temp:Feuchte:Taupunkt:
Aussen-T/F 26 22-04-2020 02:05:00 10.3 C 62 % 3.35 C
27 22-04-2020 02:10:00 10.2 C 62 % 3.25 C
28 22-04-2020 02:15:00 10.2 C 63 % 3.48 C
29 22-04-2020 02:20:00 10.1 C 63 % 3.39 C
30 22-04-2020 02:25:00 9.9 C 63 % 3.2 C
31 22-04-2020 02:30:00 9.8 C 64 % 3.32 C
32 22-04-2020 02:35:00 9.8 C 63 % 3.1 C
33 22-04-2020 02:40:00 9.8 C 64 % 3.32 C
34 22-04-2020 02:45:00 9.9 C 63 % 3.2 C
35 22-04-2020 02:50:00 9.8 C 64 % 3.32 C
36 22-04-2020 02:55:00 9.7 C 64 % 3.23 C
37 22-04-2020 03:00:00 9.6 C 64 % 3.14 C
38 22-04-2020 03:05:00 9.6 C 64 % 3.14 C
39 22-04-2020 03:10:00 9.5 C 65 % 3.26 C
40 22-04-2020 03:15:00 9.5 C 65 % 3.26 C
41 22-04-2020 03:20:00 9.5 C 65 % 3.26 C
42 22-04-2020 03:25:00 9.4 C 65 % 3.16 C
43 22-04-2020 03:30:00 9.3 C 65 % 3.07 C
44 22-04-2020 03:35:00 9.2 C 66 % 3.19 C
45 22-04-2020 03:40:00 9.1 C 67 % 3.31 C
46 22-04-2020 03:45:00 8.9 C 67 % 3.12 C
47 22-04-2020 03:50:00 8.8 C 67 % 3.02 C
48 22-04-2020 03:55:00 8.7 C 68 % 3.13 C
49 22-04-2020 04:00:00 8.7 C 67 % 2.92 C
50 22-04-2020 04:05:00 8.7 C 68 % 3.13 C
Sensor: Nr:Datum:Temp:Feuchte:Taupunkt:
Aussen-T/F 51 22-04-2020 04:10:00 8.7 C 67 % 2.92 C
52 22-04-2020 04:15:00 8.6 C 68 % 3.04 C
53 22-04-2020 04:20:00 8.5 C 68 % 2.94 C
54 22-04-2020 04:25:00 8.4 C 68 % 2.85 C
55 22-04-2020 04:30:00 8.4 C 68 % 2.85 C
56 22-04-2020 04:35:00 8.3 C 68 % 2.75 C
57 22-04-2020 04:40:00 8.3 C 68 % 2.75 C
58 22-04-2020 04:45:00 8.2 C 69 % 2.86 C
59 22-04-2020 04:50:00 8.1 C 69 % 2.77 C
60 22-04-2020 04:55:00 8.1 C 69 % 2.77 C
61 22-04-2020 05:00:00 7.9 C 70 % 2.78 C
62 22-04-2020 05:05:00 7.8 C 70 % 2.68 C
63 22-04-2020 05:10:00 7.8 C 71 % 2.88 C
64 22-04-2020 05:15:00 7.7 C 71 % 2.78 C
65 22-04-2020 05:20:00 7.6 C 71 % 2.69 C
66 22-04-2020 05:25:00 7.5 C 71 % 2.59 C
67 22-04-2020 05:30:00 7.4 C 72 % 2.69 C
68 22-04-2020 05:35:00 7.3 C 72 % 2.6 C
69 22-04-2020 05:40:00 7.3 C 72 % 2.6 C
70 22-04-2020 05:45:00 7.2 C 72 % 2.5 C
71 22-04-2020 05:50:00 7.2 C 73 % 2.69 C
72 22-04-2020 05:55:00 7.2 C 72 % 2.5 C
73 22-04-2020 06:00:00 7.1 C 73 % 2.6 C
74 22-04-2020 06:05:00 7 C 73 % 2.5 C
75 22-04-2020 06:10:00 6.9 C 73 % 2.4 C
Sensor: Nr:Datum:Temp:Feuchte:Taupunkt:
Aussen-T/F 76 22-04-2020 06:15:00 6.8 C 73 % 2.31 C
77 22-04-2020 06:20:00 6.7 C 74 % 2.4 C
78 22-04-2020 06:25:00 6.6 C 75 % 2.49 C
79 22-04-2020 06:30:00 6.5 C 75 % 2.4 C
80 22-04-2020 06:35:00 6.4 C 75 % 2.3 C
81 22-04-2020 06:40:00 6.3 C 76 % 2.39 C
82 22-04-2020 06:45:00 6.2 C 77 % 2.48 C
83 22-04-2020 06:50:00 6.2 C 78 % 2.66 C
84 22-04-2020 06:55:00 6.2 C 78 % 2.66 C
85 22-04-2020 07:00:00 6.2 C 78 % 2.66 C
86 22-04-2020 07:05:00 6.2 C 78 % 2.66 C
87 22-04-2020 07:10:00 6.1 C 79 % 2.74 C
88 22-04-2020 07:15:00 6.2 C 79 % 2.84 C
89 22-04-2020 07:20:00 6.1 C 79 % 2.74 C
90 22-04-2020 07:25:00 6.2 C 79 % 2.84 C
91 22-04-2020 07:30:00 6.2 C 80 % 3.01 C
92 22-04-2020 07:35:00 6.2 C 80 % 3.01 C
93 22-04-2020 07:40:00 6.2 C 80 % 3.01 C
94 22-04-2020 07:45:00 6.2 C 80 % 3.01 C
95 22-04-2020 07:50:00 6.2 C 80 % 3.01 C
96 22-04-2020 07:55:00 6.3 C 80 % 3.11 C
97 22-04-2020 08:00:00 6.4 C 79 % 3.03 C
98 22-04-2020 08:05:00 6.6 C 79 % 3.23 C
99 22-04-2020 08:10:00 6.7 C 79 % 3.32 C
100 22-04-2020 08:15:00 6.8 C 79 % 3.42 C
Sensor: Nr:Datum:Temp:Feuchte:Taupunkt:
Aussen-T/F 101 22-04-2020 08:20:00 6.9 C 79 % 3.52 C
102 22-04-2020 08:25:00 7.1 C 78 % 3.53 C
103 22-04-2020 08:30:00 7.2 C 78 % 3.63 C
104 22-04-2020 08:35:00 7.6 C 74 % 3.27 C
105 22-04-2020 08:40:00 8 C 74 % 3.66 C
106 22-04-2020 08:45:00 8.2 C 74 % 3.85 C
107 22-04-2020 08:50:00 8.3 C 73 % 3.75 C
108 22-04-2020 08:55:00 8.5 C 69 % 3.15 C
109 22-04-2020 09:00:00 9.1 C 69 % 3.72 C
110 22-04-2020 09:05:00 9.4 C 66 % 3.38 C
111 22-04-2020 09:10:00 9.6 C 67 % 3.78 C
112 22-04-2020 09:15:00 9.7 C 66 % 3.67 C
113 22-04-2020 09:20:00 9.9 C 62 % 2.97 C
114 22-04-2020 09:25:00 10.4 C 63 % 3.67 C
115 22-04-2020 09:30:00 10.7 C 62 % 3.73 C
116 22-04-2020 09:35:00 10.8 C 61 % 3.59 C
117 22-04-2020 09:40:00 10.9 C 61 % 3.69 C
118 22-04-2020 09:45:00 11.1 C 58 % 3.16 C
119 22-04-2020 09:50:00 11.3 C 57 % 3.1 C
120 22-04-2020 09:55:00 11.5 C 59 % 3.78 C
121 22-04-2020 10:00:00 11.6 C 56 % 3.13 C
122 22-04-2020 10:05:00 11.8 C 58 % 3.82 C
123 22-04-2020 10:10:00 12.1 C 55 % 3.34 C
124 22-04-2020 10:15:00 12.4 C 56 % 3.88 C
125 22-04-2020 10:20:00 12.8 C 50 % 2.65 C
Sensor: Nr:Datum:Temp:Feuchte:Taupunkt:
Aussen-T/F 126 22-04-2020 10:25:00 13.1 C 53 % 3.75 C
127 22-04-2020 10:30:00 13.2 C 52 % 3.57 C
128 22-04-2020 10:35:00 13.5 C 50 % 3.29 C
129 22-04-2020 10:40:00 13.7 C 49 % 3.19 C
130 22-04-2020 10:45:00 14 C 48 % 3.18 C
131 22-04-2020 10:50:00 14.3 C 46 % 2.85 C
132 22-04-2020 10:55:00 14.6 C 46 % 3.12 C
133 22-04-2020 11:00:00 14.8 C 44 % 2.68 C
134 22-04-2020 11:05:00 15.1 C 44 % 2.95 C
135 22-04-2020 11:10:00 15.3 C 44 % 3.13 C
136 22-04-2020 11:15:00 15.4 C 44 % 3.22 C
137 22-04-2020 11:20:00 15.7 C 43 % 3.17 C
138 22-04-2020 11:25:00 15.8 C 43 % 3.26 C
139 22-04-2020 11:30:00 15.9 C 43 % 3.35 C
140 22-04-2020 11:35:00 16.1 C 40 % 2.51 C
141 22-04-2020 11:40:00 16.3 C 40 % 2.69 C
142 22-04-2020 11:45:00 16.6 C 41 % 3.31 C
143 22-04-2020 11:50:00 16.7 C 39 % 2.69 C
144 22-04-2020 11:55:00 16.8 C 39 % 2.78 C
145 22-04-2020 12:00:00 17 C 38 % 2.6 C
146 22-04-2020 12:05:00 17.2 C 37 % 2.4 C
147 22-04-2020 12:10:00 17.3 C 37 % 2.49 C
148 22-04-2020 12:15:00 17.5 C 37 % 2.67 C
149 22-04-2020 12:20:00 17.7 C 36 % 2.46 C
150 22-04-2020 12:25:00 17.8 C 36 % 2.55 C
Sensor: Nr:Datum:Temp:Feuchte:Taupunkt:
Aussen-T/F 151 22-04-2020 12:30:00 17.9 C 34 % 1.83 C
152 22-04-2020 12:35:00 17.8 C 35 % 2.15 C
153 22-04-2020 12:40:00 17.8 C 34 % 1.75 C
154 22-04-2020 12:45:00 17.8 C 34 % 1.75 C
155 22-04-2020 12:50:00 17.9 C 35 % 2.24 C
156 22-04-2020 12:55:00 18.1 C 34 % 2.01 C
157 22-04-2020 13:00:00 18.2 C 35 % 2.5 C
158 22-04-2020 13:05:00 18.4 C 35 % 2.68 C
159 22-04-2020 13:10:00 18.6 C 34 % 2.45 C
160 22-04-2020 13:15:00 18.8 C 35 % 3.03 C
161 22-04-2020 13:20:00 18.8 C 34 % 2.62 C
162 22-04-2020 13:25:00 18.9 C 36 % 3.52 C
163 22-04-2020 13:30:00 19 C 35 % 3.21 C
164 22-04-2020 13:35:00 19.1 C 34 % 2.89 C
165 22-04-2020 13:40:00 19.2 C 33 % 2.56 C
166 22-04-2020 13:45:00 19.3 C 33 % 2.64 C
167 22-04-2020 13:50:00 19.4 C 33 % 2.73 C
168 22-04-2020 13:55:00 19.5 C 33 % 2.82 C
169 22-04-2020 14:00:00 19.6 C 33 % 2.91 C
170 22-04-2020 14:05:00 19.7 C 34 % 3.41 C
171 22-04-2020 14:10:00 19.8 C 35 % 3.91 C
172 22-04-2020 14:15:00 20 C 33 % 3.26 C
173 22-04-2020 14:20:00 20 C 33 % 3.26 C
174 22-04-2020 14:25:00 20.1 C 33 % 3.34 C
175 22-04-2020 14:30:00 20.3 C 33 % 3.52 C
Sensor: Nr:Datum:Temp:Feuchte:Taupunkt:
Aussen-T/F 176 22-04-2020 14:35:00 20.4 C 32 % 3.17 C
177 22-04-2020 14:40:00 20.4 C 32 % 3.17 C
178 22-04-2020 14:45:00 20.6 C 32 % 3.34 C
179 22-04-2020 14:50:00 20.6 C 31 % 2.9 C
180 22-04-2020 14:55:00 20.7 C 33 % 3.87 C
181 22-04-2020 15:00:00 20.8 C 31 % 3.07 C
182 22-04-2020 15:05:00 20.9 C 32 % 3.61 C
183 22-04-2020 15:10:00 21.1 C 31 % 3.33 C
184 22-04-2020 15:15:00 21.1 C 31 % 3.33 C
185 22-04-2020 15:20:00 21.2 C 31 % 3.42 C
186 22-04-2020 15:25:00 21.3 C 31 % 3.5 C
187 22-04-2020 15:30:00 21.4 C 31 % 3.59 C
188 22-04-2020 15:35:00 21.7 C 30 % 3.39 C
189 22-04-2020 15:40:00 21.7 C 31 % 3.85 C
190 22-04-2020 15:45:00 21.7 C 30 % 3.39 C
191 22-04-2020 15:50:00 21.9 C 30 % 3.56 C
192 22-04-2020 15:55:00 22.1 C 29 % 3.25 C
193 22-04-2020 16:00:00 22.2 C 30 % 3.82 C
194 22-04-2020 16:05:00 22.2 C 29 % 3.34 C
195 22-04-2020 16:10:00 22.2 C 29 % 3.34 C
196 22-04-2020 16:15:00 22.3 C 29 % 3.42 C
197 22-04-2020 16:20:00 22.6 C 30 % 4.16 C
198 22-04-2020 16:25:00 22.7 C 29 % 3.77 C
199 22-04-2020 16:30:00 22.9 C 29 % 3.94 C
200 22-04-2020 16:35:00 23.1 C 27 % 3.1 C
Sensor: Nr:Datum:Temp:Feuchte:Taupunkt:
Aussen-T/F 201 22-04-2020 16:40:00 22.8 C 28 % 3.36 C
202 22-04-2020 16:45:00 22.5 C 28 % 3.1 C
203 22-04-2020 16:50:00 22.6 C 28 % 3.19 C
204 22-04-2020 16:55:00 22.8 C 29 % 3.85 C
205 22-04-2020 17:00:00 22.9 C 28 % 3.44 C
206 22-04-2020 17:05:00 22.7 C 28 % 3.27 C
207 22-04-2020 17:10:00 22.5 C 29 % 3.6 C
208 22-04-2020 17:15:00 22.4 C 28 % 3.01 C
209 22-04-2020 17:20:00 22.3 C 28 % 2.93 C
210 22-04-2020 17:25:00 22.3 C 29 % 3.42 C
211 22-04-2020 17:30:00 22.6 C 29 % 3.68 C
212 22-04-2020 17:35:00 22.8 C 28 % 3.36 C
213 22-04-2020 17:40:00 22.9 C 28 % 3.44 C
214 22-04-2020 17:45:00 23 C 28 % 3.53 C
215 22-04-2020 17:50:00 22.8 C 28 % 3.36 C
216 22-04-2020 17:55:00 22.7 C 28 % 3.27 C
217 22-04-2020 18:00:00 22.7 C 28 % 3.27 C
218 22-04-2020 18:05:00 22.7 C 28 % 3.27 C
219 22-04-2020 18:10:00 22.6 C 28 % 3.19 C
220 22-04-2020 18:15:00 22.4 C 28 % 3.01 C
221 22-04-2020 18:20:00 22.2 C 28 % 2.84 C
222 22-04-2020 18:25:00 22.2 C 28 % 2.84 C
223 22-04-2020 18:30:00 22.3 C 29 % 3.42 C
224 22-04-2020 18:35:00 22.3 C 28 % 2.93 C
225 22-04-2020 18:40:00 22.3 C 29 % 3.42 C
Sensor: Nr:Datum:Temp:Feuchte:Taupunkt:
Aussen-T/F 226 22-04-2020 18:45:00 22.4 C 28 % 3.01 C
227 22-04-2020 18:50:00 22.3 C 28 % 2.93 C
228 22-04-2020 18:55:00 22.2 C 28 % 2.84 C
229 22-04-2020 19:00:00 22.2 C 28 % 2.84 C
230 22-04-2020 19:05:00 21.8 C 30 % 3.47 C
231 22-04-2020 19:10:00 21.8 C 30 % 3.47 C
232 22-04-2020 19:15:00 21.8 C 29 % 2.99 C
233 22-04-2020 19:20:00 21.7 C 29 % 2.91 C
234 22-04-2020 19:25:00 21.4 C 30 % 3.13 C
235 22-04-2020 19:30:00 21.2 C 30 % 2.95 C
236 22-04-2020 19:35:00 20.9 C 30 % 2.69 C
237 22-04-2020 19:40:00 20.8 C 30 % 2.61 C
238 22-04-2020 19:45:00 20.7 C 31 % 2.98 C
239 22-04-2020 19:50:00 20.6 C 32 % 3.34 C
240 22-04-2020 19:55:00 20.4 C 31 % 2.72 C
241 22-04-2020 20:00:00 20.3 C 33 % 3.52 C
242 22-04-2020 20:05:00 20.3 C 33 % 3.52 C
243 22-04-2020 20:10:00 20.1 C 36 % 4.58 C
244 22-04-2020 20:15:00 19.7 C 38 % 5 C
245 22-04-2020 20:20:00 19.2 C 35 % 3.38 C
246 22-04-2020 20:25:00 18.7 C 38 % 4.11 C
247 22-04-2020 20:30:00 18.1 C 40 % 4.3 C
248 22-04-2020 20:35:00 17.4 C 38 % 2.95 C
249 22-04-2020 20:40:00 17.2 C 42 % 4.19 C
250 22-04-2020 20:45:00 16.8 C 43 % 4.16 C
Sensor: Nr:Datum:Temp:Feuchte:Taupunkt:
Aussen-T/F 251 22-04-2020 20:50:00 16.5 C 43 % 3.89 C
252 22-04-2020 20:55:00 16.3 C 42 % 3.38 C
253 22-04-2020 21:00:00 16.1 C 41 % 2.86 C
254 22-04-2020 21:05:00 16.1 C 44 % 3.86 C
255 22-04-2020 21:10:00 15.8 C 44 % 3.59 C
256 22-04-2020 21:15:00 15.6 C 46 % 4.03 C
257 22-04-2020 21:20:00 15.2 C 46 % 3.67 C
258 22-04-2020 21:25:00 14.9 C 46 % 3.4 C
259 22-04-2020 21:30:00 14.7 C 48 % 3.82 C
260 22-04-2020 21:35:00 14.4 C 49 % 3.83 C
261 22-04-2020 21:40:00 14.3 C 50 % 4.03 C
262 22-04-2020 21:45:00 14.2 C 50 % 3.94 C
263 22-04-2020 21:50:00 14.2 C 50 % 3.94 C
264 22-04-2020 21:55:00 14.1 C 51 % 4.13 C
265 22-04-2020 22:00:00 14 C 51 % 4.04 C
266 22-04-2020 22:05:00 13.8 C 51 % 3.85 C
267 22-04-2020 22:10:00 13.7 C 50 % 3.48 C
268 22-04-2020 22:15:00 13.7 C 52 % 4.03 C
269 22-04-2020 22:20:00 13.7 C 51 % 3.76 C
270 22-04-2020 22:25:00 13.8 C 51 % 3.85 C
271 22-04-2020 22:30:00 13.9 C 52 % 4.22 C
272 22-04-2020 22:35:00 13.9 C 52 % 4.22 C
273 22-04-2020 22:40:00 13.8 C 49 % 3.28 C
274 22-04-2020 22:45:00 13.8 C 51 % 3.85 C
275 22-04-2020 22:50:00 13.8 C 51 % 3.85 C
Sensor: Nr:Datum:Temp:Feuchte:Taupunkt:
Aussen-T/F 276 22-04-2020 22:55:00 13.9 C 51 % 3.94 C
277 22-04-2020 23:00:00 13.8 C 52 % 4.13 C
278 22-04-2020 23:05:00 13.8 C 51 % 3.85 C
279 22-04-2020 23:10:00 14 C 52 % 4.31 C
280 22-04-2020 23:15:00 13.9 C 49 % 3.38 C
281 22-04-2020 23:20:00 14 C 51 % 4.04 C
282 22-04-2020 23:25:00 13.9 C 51 % 3.94 C
283 22-04-2020 23:30:00 13.8 C 51 % 3.85 C
284 22-04-2020 23:35:00 13.7 C 51 % 3.76 C
285 22-04-2020 23:40:00 13.6 C 53 % 4.21 C
286 22-04-2020 23:45:00 13.6 C 51 % 3.67 C
287 22-04-2020 23:50:00 13.5 C 52 % 3.85 C
288 22-04-2020 23:55:00 13.3 C 53 % 3.93 C
289 23-04-2020 00:00:00 13.1 C 53 % 3.75 C
290 23-04-2020 00:05:00 13 C 55 % 4.18 C
291 23-04-2020 00:10:00 12.9 C 55 % 4.09 C
292 23-04-2020 00:15:00 12.9 C 54 % 3.83 C
293 23-04-2020 00:20:00 12.8 C 54 % 3.74 C
294 23-04-2020 00:25:00 12.8 C 54 % 3.74 C
295 23-04-2020 00:30:00 12.8 C 55 % 4 C
296 23-04-2020 00:35:00 12.8 C 55 % 4 C
297 23-04-2020 00:40:00 12.9 C 55 % 4.09 C
298 23-04-2020 00:45:00 12.8 C 55 % 4 C
299 23-04-2020 00:50:00 12.7 C 54 % 3.64 C
300 23-04-2020 00:55:00 12.7 C 55 % 3.9 C
Sensor: Nr:Datum:Temp:Feuchte:Taupunkt:
Aussen-T/F 301 23-04-2020 01:00:00 12.6 C 56 % 4.07 C
302 23-04-2020 01:05:00 12.6 C 55 % 3.81 C
303 23-04-2020 01:10:00 12.6 C 56 % 4.07 C
304 23-04-2020 01:15:00 12.4 C 56 % 3.88 C
305 23-04-2020 01:20:00 12.2 C 57 % 3.94 C
306 23-04-2020 01:25:00 12.1 C 56 % 3.6 C
307 23-04-2020 01:30:00 12.1 C 56 % 3.6 C
308 23-04-2020 01:35:00 12.2 C 58 % 4.19 C
309 23-04-2020 01:40:00 11.9 C 58 % 3.91 C
310 23-04-2020 01:45:00 11.7 C 59 % 3.97 C
311 23-04-2020 01:50:00 11.4 C 60 % 3.92 C
312 23-04-2020 01:55:00 11.2 C 61 % 3.97 C
313 23-04-2020 02:00:00 11 C 62 % 4.01 C
314 23-04-2020 02:05:00 10.7 C 62 % 3.73 C
315 23-04-2020 02:10:00 10.5 C 63 % 3.77 C
316 23-04-2020 02:15:00 10.3 C 64 % 3.8 C
317 23-04-2020 02:20:00 10.2 C 65 % 3.92 C
318 23-04-2020 02:25:00 10.2 C 65 % 3.92 C
319 23-04-2020 02:30:00 10.3 C 64 % 3.8 C
320 23-04-2020 02:35:00 10.4 C 64 % 3.89 C
321 23-04-2020 02:40:00 10.4 C 64 % 3.89 C
322 23-04-2020 02:45:00 10.3 C 65 % 4.02 C
323 23-04-2020 02:50:00 10.1 C 65 % 3.83 C
324 23-04-2020 02:55:00 9.9 C 65 % 3.64 C
325 23-04-2020 03:00:00 9.9 C 66 % 3.86 C
Sensor: Nr:Datum:Temp:Feuchte:Taupunkt:
Aussen-T/F 326 23-04-2020 03:05:00 9.8 C 66 % 3.76 C
327 23-04-2020 03:10:00 9.7 C 67 % 3.88 C
328 23-04-2020 03:15:00 9.7 C 67 % 3.88 C
329 23-04-2020 03:20:00 9.6 C 67 % 3.78 C
330 23-04-2020 03:25:00 9.5 C 67 % 3.69 C
331 23-04-2020 03:30:00 9.4 C 68 % 3.8 C
332 23-04-2020 03:35:00 9.4 C 68 % 3.8 C
333 23-04-2020 03:40:00 9.3 C 68 % 3.71 C
334 23-04-2020 03:45:00 9.3 C 68 % 3.71 C
335 23-04-2020 03:50:00 9.3 C 67 % 3.5 C
336 23-04-2020 03:55:00 9.3 C 68 % 3.71 C
337 23-04-2020 04:00:00 9.2 C 68 % 3.61 C
338 23-04-2020 04:05:00 9.1 C 68 % 3.52 C
339 23-04-2020 04:10:00 8.9 C 69 % 3.53 C
340 23-04-2020 04:15:00 8.8 C 69 % 3.44 C
341 23-04-2020 04:20:00 8.6 C 70 % 3.45 C
342 23-04-2020 04:25:00 8.4 C 71 % 3.46 C
343 23-04-2020 04:30:00 8.3 C 72 % 3.56 C
344 23-04-2020 04:35:00 8.1 C 73 % 3.56 C
345 23-04-2020 04:40:00 7.9 C 73 % 3.37 C
346 23-04-2020 04:45:00 7.8 C 74 % 3.46 C
347 23-04-2020 04:50:00 7.8 C 74 % 3.46 C
348 23-04-2020 04:55:00 7.8 C 75 % 3.65 C
349 23-04-2020 05:00:00 7.6 C 75 % 3.46 C
350 23-04-2020 05:05:00 7.4 C 75 % 3.27 C
Sensor: Nr:Datum:Temp:Feuchte:Taupunkt:
Aussen-T/F 351 23-04-2020 05:10:00 7.3 C 76 % 3.36 C
352 23-04-2020 05:15:00 7.2 C 76 % 3.26 C
353 23-04-2020 05:20:00 7.1 C 77 % 3.35 C
354 23-04-2020 05:25:00 6.9 C 77 % 3.16 C
355 23-04-2020 05:30:00 6.8 C 78 % 3.24 C
356 23-04-2020 05:35:00 6.7 C 78 % 3.14 C
357 23-04-2020 05:40:00 6.7 C 78 % 3.14 C
358 23-04-2020 05:45:00 6.7 C 78 % 3.14 C
359 23-04-2020 05:50:00 6.7 C 79 % 3.32 C
360 23-04-2020 05:55:00 6.6 C 79 % 3.23 C
361 23-04-2020 06:00:00 6.6 C 79 % 3.23 C
362 23-04-2020 06:05:00 6.5 C 79 % 3.13 C
363 23-04-2020 06:10:00 6.5 C 79 % 3.13 C
364 23-04-2020 06:15:00 6.4 C 79 % 3.03 C
365 23-04-2020 06:20:00 6.3 C 79 % 2.93 C
366 23-04-2020 06:25:00 6.3 C 80 % 3.11 C
367 23-04-2020 06:30:00 6.2 C 80 % 3.01 C
368 23-04-2020 06:35:00 6.2 C 80 % 3.01 C
369 23-04-2020 06:40:00 6.2 C 80 % 3.01 C
370 23-04-2020 06:45:00 6.2 C 80 % 3.01 C
371 23-04-2020 06:50:00 6.1 C 81 % 3.09 C
372 23-04-2020 06:55:00 6.1 C 81 % 3.09 C
373 23-04-2020 07:00:00 6.1 C 81 % 3.09 C
374 23-04-2020 07:05:00 6.1 C 82 % 3.26 C
375 23-04-2020 07:10:00 6.1 C 82 % 3.26 C
Sensor: Nr:Datum:Temp:Feuchte:Taupunkt:
Aussen-T/F 376 23-04-2020 07:15:00 6 C 82 % 3.17 C
377 23-04-2020 07:20:00 5.9 C 83 % 3.24 C
378 23-04-2020 07:25:00 5.9 C 84 % 3.41 C
379 23-04-2020 07:30:00 5.9 C 84 % 3.41 C
380 23-04-2020 07:35:00 5.9 C 85 % 3.58 C
381 23-04-2020 07:40:00 5.9 C 85 % 3.58 C
382 23-04-2020 07:45:00 5.9 C 85 % 3.58 C
383 23-04-2020 07:50:00 5.9 C 85 % 3.58 C
384 23-04-2020 07:55:00 5.9 C 86 % 3.74 C
385 23-04-2020 08:00:00 5.9 C 86 % 3.74 C
386 23-04-2020 08:05:00 5.9 C 86 % 3.74 C
387 23-04-2020 08:10:00 5.9 C 86 % 3.74 C
388 23-04-2020 08:15:00 6 C 87 % 4 C
389 23-04-2020 08:20:00 6.1 C 87 % 4.1 C
390 23-04-2020 08:25:00 6.2 C 87 % 4.2 C
391 23-04-2020 08:30:00 6.2 C 87 % 4.2 C
392 23-04-2020 08:35:00 6.3 C 87 % 4.3 C
393 23-04-2020 08:40:00 6.4 C 87 % 4.4 C
394 23-04-2020 08:45:00 6.6 C 87 % 4.6 C
395 23-04-2020 08:50:00 6.8 C 87 % 4.79 C
396 23-04-2020 08:55:00 6.9 C 87 % 4.89 C
397 23-04-2020 09:00:00 7.1 C 86 % 4.92 C
398 23-04-2020 09:05:00 7.3 C 86 % 5.12 C
399 23-04-2020 09:10:00 7.5 C 86 % 5.31 C
400 23-04-2020 09:15:00 7.8 C 85 % 5.44 C
Sensor: Nr:Datum:Temp:Feuchte:Taupunkt:
Aussen-T/F 401 23-04-2020 09:20:00 8 C 84 % 5.47 C
402 23-04-2020 09:25:00 8.2 C 83 % 5.49 C
403 23-04-2020 09:30:00 8.5 C 83 % 5.78 C
404 23-04-2020 09:35:00 8.7 C 82 % 5.8 C
405 23-04-2020 09:40:00 8.9 C 82 % 6 C
406 23-04-2020 09:45:00 9.2 C 80 % 5.94 C
407 23-04-2020 09:50:00 9.4 C 80 % 6.13 C
408 23-04-2020 09:55:00 9.6 C 79 % 6.14 C
409 23-04-2020 10:00:00 9.9 C 78 % 6.25 C
410 23-04-2020 10:05:00 10.2 C 78 % 6.54 C
411 23-04-2020 10:10:00 10.4 C 77 % 6.55 C
412 23-04-2020 10:15:00 10.6 C 76 % 6.55 C
413 23-04-2020 10:20:00 11 C 72 % 6.15 C
414 23-04-2020 10:25:00 11.4 C 71 % 6.34 C
415 23-04-2020 10:30:00 11.8 C 70 % 6.51 C
416 23-04-2020 10:35:00 12.1 C 70 % 6.8 C
417 23-04-2020 10:40:00 12.4 C 70 % 7.09 C
418 23-04-2020 10:45:00 12.7 C 64 % 6.07 C
419 23-04-2020 10:50:00 13.1 C 64 % 6.45 C
420 23-04-2020 10:55:00 13.8 C 58 % 5.69 C
421 23-04-2020 11:00:00 14.9 C 54 % 5.69 C
422 23-04-2020 11:05:00 15.3 C 59 % 7.34 C
423 23-04-2020 11:10:00 15.6 C 53 % 6.06 C
424 23-04-2020 11:15:00 15.8 C 51 % 5.69 C
425 23-04-2020 11:20:00 16.2 C 49 % 5.49 C
Sensor: Nr:Datum:Temp:Feuchte:Taupunkt:
Aussen-T/F 426 23-04-2020 11:25:00 16.4 C 47 % 5.07 C
427 23-04-2020 11:30:00 16.8 C 46 % 5.13 C
428 23-04-2020 11:35:00 16.9 C 52 % 6.99 C
429 23-04-2020 11:40:00 16.9 C 48 % 5.83 C
430 23-04-2020 11:45:00 17.1 C 47 % 5.71 C
431 23-04-2020 11:50:00 17.2 C 47 % 5.8 C
432 23-04-2020 11:55:00 17.3 C 45 % 5.27 C
433 23-04-2020 12:00:00 17.5 C 46 % 5.76 C
434 23-04-2020 12:05:00 17.7 C 44 % 5.31 C
435 23-04-2020 12:10:00 17.7 C 44 % 5.31 C
436 23-04-2020 12:15:00 17.9 C 45 % 5.81 C
437 23-04-2020 12:20:00 18 C 44 % 5.58 C
438 23-04-2020 12:25:00 18.1 C 44 % 5.67 C
439 23-04-2020 12:30:00 18.2 C 43 % 5.43 C
440 23-04-2020 12:35:00 18.3 C 43 % 5.52 C
441 23-04-2020 12:40:00 18.3 C 43 % 5.52 C
442 23-04-2020 12:45:00 18.4 C 43 % 5.61 C
443 23-04-2020 12:50:00 18.4 C 42 % 5.27 C
444 23-04-2020 12:55:00 18.5 C 41 % 5.01 C
445 23-04-2020 13:00:00 18.7 C 38 % 4.11 C
446 23-04-2020 13:05:00 18.9 C 35 % 3.12 C
447 23-04-2020 13:10:00 19 C 36 % 3.61 C
448 23-04-2020 13:15:00 19.2 C 35 % 3.38 C
449 23-04-2020 13:20:00 19.3 C 35 % 3.47 C
450 23-04-2020 13:25:00 19.3 C 35 % 3.47 C
Sensor: Nr:Datum:Temp:Feuchte:Taupunkt:
Aussen-T/F 451 23-04-2020 13:30:00 19.4 C 36 % 3.96 C
452 23-04-2020 13:35:00 19.6 C 35 % 3.74 C
453 23-04-2020 13:40:00 19.7 C 34 % 3.41 C
454 23-04-2020 13:45:00 19.8 C 35 % 3.91 C
455 23-04-2020 13:50:00 20.1 C 33 % 3.34 C
456 23-04-2020 13:55:00 20.1 C 35 % 4.18 C
457 23-04-2020 14:00:00 20.1 C 33 % 3.34 C
458 23-04-2020 14:05:00 20.2 C 33 % 3.43 C
459 23-04-2020 14:10:00 20.3 C 33 % 3.52 C
460 23-04-2020 14:15:00 20.3 C 35 % 4.35 C
461 23-04-2020 14:20:00 20.4 C 33 % 3.6 C
462 23-04-2020 14:25:00 20.6 C 33 % 3.78 C
463 23-04-2020 14:30:00 20.8 C 33 % 3.95 C
464 23-04-2020 14:35:00 20.9 C 33 % 4.04 C
465 23-04-2020 14:40:00 21 C 32 % 3.69 C
466 23-04-2020 14:45:00 21 C 33 % 4.13 C
467 23-04-2020 14:50:00 21.1 C 33 % 4.22 C
468 23-04-2020 14:55:00 21.3 C 32 % 3.95 C
469 23-04-2020 15:00:00 21.4 C 33 % 4.48 C
470 23-04-2020 15:05:00 21.6 C 32 % 4.21 C
471 23-04-2020 15:10:00 21.7 C 31 % 3.85 C
472 23-04-2020 15:15:00 21.6 C 30 % 3.3 C
473 23-04-2020 15:20:00 21.7 C 32 % 4.3 C
474 23-04-2020 15:25:00 21.8 C 31 % 3.94 C
475 23-04-2020 15:30:00 22.1 C 31 % 4.2 C
Sensor: Nr:Datum:Temp:Feuchte:Taupunkt:
Aussen-T/F 476 23-04-2020 15:35:00 22.2 C 30 % 3.82 C
477 23-04-2020 15:40:00 22.3 C 29 % 3.42 C
478 23-04-2020 15:45:00 22.4 C 31 % 4.46 C
479 23-04-2020 15:50:00 22.6 C 30 % 4.16 C
480 23-04-2020 15:55:00 22.6 C 29 % 3.68 C
481 23-04-2020 16:00:00 22.6 C 30 % 4.16 C
482 23-04-2020 16:05:00 22.7 C 30 % 4.25 C
483 23-04-2020 16:10:00 22.7 C 30 % 4.25 C
484 23-04-2020 16:15:00 22.7 C 30 % 4.25 C
485 23-04-2020 16:20:00 22.8 C 30 % 4.34 C
486 23-04-2020 16:25:00 23.2 C 29 % 4.2 C
487 23-04-2020 16:30:00 23.5 C 28 % 3.96 C
488 23-04-2020 16:35:00 23.4 C 28 % 3.87 C
489 23-04-2020 16:40:00 23.3 C 28 % 3.78 C
490 23-04-2020 16:45:00 23.4 C 30 % 4.85 C
491 23-04-2020 16:50:00 23.9 C 29 % 4.8 C
492 23-04-2020 16:55:00 24.3 C 28 % 4.64 C
493 23-04-2020 17:00:00 24.2 C 28 % 4.55 C
494 23-04-2020 17:05:00 24.4 C 28 % 4.73 C
495 23-04-2020 17:10:00 24.2 C 28 % 4.55 C
496 23-04-2020 17:15:00 24.1 C 28 % 4.47 C
497 23-04-2020 17:20:00 24.2 C 28 % 4.55 C
498 23-04-2020 17:25:00 24.5 C 26 % 3.76 C
499 23-04-2020 17:30:00 24.7 C 27 % 4.46 C
500 23-04-2020 17:35:00 24.7 C 26 % 3.93 C
Sensor: Nr:Datum:Temp:Feuchte:Taupunkt:
Aussen-T/F 501 23-04-2020 17:40:00 24.3 C 27 % 4.12 C
502 23-04-2020 17:45:00 24.2 C 28 % 4.55 C
503 23-04-2020 17:50:00 24.2 C 28 % 4.55 C
504 23-04-2020 17:55:00 24.6 C 29 % 5.4 C
505 23-04-2020 18:00:00 24.8 C 25 % 3.45 C
506 23-04-2020 18:05:00 25.1 C 27 % 4.8 C
507 23-04-2020 18:10:00 25.3 C 25 % 3.88 C
508 23-04-2020 18:15:00 25.2 C 29 % 5.91 C
509 23-04-2020 18:20:00 25.5 C 27 % 5.14 C
510 23-04-2020 18:25:00 25.7 C 25 % 4.21 C
511 23-04-2020 18:30:00 25.8 C 25 % 4.3 C
512 23-04-2020 18:35:00 25.7 C 25 % 4.21 C
513 23-04-2020 18:40:00 25.6 C 27 % 5.23 C
514 23-04-2020 18:45:00 25.4 C 27 % 5.06 C
515 23-04-2020 18:50:00 25.3 C 27 % 4.97 C
516 23-04-2020 18:55:00 24.9 C 27 % 4.63 C
517 23-04-2020 19:00:00 24.7 C 30 % 5.97 C
518 23-04-2020 19:05:00 24.7 C 29 % 5.49 C
519 23-04-2020 19:10:00 24.8 C 26 % 4.01 C
520 23-04-2020 19:15:00 24.8 C 28 % 5.07 C
521 23-04-2020 19:20:00 24.7 C 31 % 6.45 C
522 23-04-2020 19:25:00 24.4 C 33 % 7.1 C
523 23-04-2020 19:30:00 24.2 C 36 % 8.2 C
524 23-04-2020 19:35:00 22.9 C 58 % 14.2 C
525 23-04-2020 19:40:00 20.8 C 61 % 13.01 C
Sensor: Nr:Datum:Temp:Feuchte:Taupunkt:
Aussen-T/F 526 23-04-2020 19:45:00 19 C 67 % 12.74 C
527 23-04-2020 19:50:00 17.6 C 67 % 11.4 C
528 23-04-2020 19:55:00 16.4 C 66 % 10.04 C
529 23-04-2020 20:00:00 15.7 C 66 % 9.37 C
530 23-04-2020 20:05:00 15.3 C 66 % 8.99 C
531 23-04-2020 20:10:00 15.2 C 66 % 8.9 C
532 23-04-2020 20:15:00 14.9 C 65 % 8.39 C
533 23-04-2020 20:20:00 14.8 C 66 % 8.52 C
534 23-04-2020 20:25:00 14.7 C 67 % 8.64 C
535 23-04-2020 20:30:00 14.6 C 68 % 8.77 C
536 23-04-2020 20:35:00 14.4 C 69 % 8.79 C
537 23-04-2020 20:40:00 14.3 C 70 % 8.91 C
538 23-04-2020 20:45:00 14.1 C 69 % 8.5 C
539 23-04-2020 20:50:00 13.9 C 66 % 7.66 C
540 23-04-2020 20:55:00 13.8 C 66 % 7.57 C
541 23-04-2020 21:00:00 13.6 C 65 % 7.15 C
542 23-04-2020 21:05:00 13.4 C 64 % 6.74 C
543 23-04-2020 21:10:00 13.4 C 65 % 6.96 C
544 23-04-2020 21:15:00 13.3 C 66 % 7.09 C
545 23-04-2020 21:20:00 13.2 C 65 % 6.77 C
546 23-04-2020 21:25:00 13.1 C 65 % 6.68 C
547 23-04-2020 21:30:00 12.9 C 65 % 6.49 C
548 23-04-2020 21:35:00 12.8 C 64 % 6.17 C
549 23-04-2020 21:40:00 12.7 C 65 % 6.3 C
550 23-04-2020 21:45:00 12.6 C 66 % 6.42 C
Sensor: Nr:Datum:Temp:Feuchte:Taupunkt:
Aussen-T/F 551 23-04-2020 21:50:00 12.4 C 66 % 6.23 C
552 23-04-2020 21:55:00 12.3 C 65 % 5.92 C
553 23-04-2020 22:00:00 12.2 C 67 % 6.26 C
554 23-04-2020 22:05:00 12.1 C 67 % 6.17 C
555 23-04-2020 22:10:00 11.9 C 68 % 6.19 C
556 23-04-2020 22:15:00 11.7 C 67 % 5.78 C
557 23-04-2020 22:20:00 11.7 C 68 % 6 C
558 23-04-2020 22:25:00 11.6 C 67 % 5.69 C
559 23-04-2020 22:30:00 11.4 C 68 % 5.71 C
560 23-04-2020 22:35:00 11.3 C 68 % 5.62 C
561 23-04-2020 22:40:00 11.2 C 68 % 5.52 C
562 23-04-2020 22:45:00 11.2 C 69 % 5.73 C
563 23-04-2020 22:50:00 11.1 C 68 % 5.43 C
564 23-04-2020 22:55:00 10.9 C 69 % 5.44 C
565 23-04-2020 23:00:00 10.8 C 70 % 5.56 C
566 23-04-2020 23:05:00 10.7 C 70 % 5.46 C
567 23-04-2020 23:10:00 10.6 C 70 % 5.36 C
568 23-04-2020 23:15:00 10.4 C 71 % 5.38 C
569 23-04-2020 23:20:00 10.3 C 71 % 5.28 C
570 23-04-2020 23:25:00 10.1 C 71 % 5.09 C
571 23-04-2020 23:30:00 10.1 C 72 % 5.29 C
572 23-04-2020 23:35:00 10 C 72 % 5.19 C
573 23-04-2020 23:40:00 9.8 C 72 % 5 C
574 23-04-2020 23:45:00 9.7 C 72 % 4.9 C
575 23-04-2020 23:50:00 9.7 C 72 % 4.9 C
Sensor: Nr:Datum:Temp:Feuchte:Taupunkt:
Aussen-T/F 576 23-04-2020 23:55:00 9.7 C 72 % 4.9 C
577 24-04-2020 00:00:00 9.6 C 72 % 4.81 C
578 24-04-2020 00:05:00 9.6 C 72 % 4.81 C
579 24-04-2020 00:10:00 9.6 C 73 % 5.01 C
580 24-04-2020 00:15:00 9.6 C 74 % 5.2 C
581 24-04-2020 00:20:00 9.6 C 73 % 5.01 C
582 24-04-2020 00:25:00 9.5 C 73 % 4.91 C
583 24-04-2020 00:30:00 9.4 C 74 % 5.01 C
584 24-04-2020 00:35:00 9.3 C 74 % 4.91 C
585 24-04-2020 00:40:00 9.1 C 74 % 4.72 C
586 24-04-2020 00:45:00 9 C 74 % 4.62 C
587 24-04-2020 00:50:00 8.9 C 75 % 4.72 C
588 24-04-2020 00:55:00 8.8 C 75 % 4.62 C
589 24-04-2020 01:00:00 8.8 C 76 % 4.81 C
590 24-04-2020 01:05:00 8.7 C 76 % 4.71 C
591 24-04-2020 01:10:00 8.7 C 77 % 4.9 C
592 24-04-2020 01:15:00 8.6 C 77 % 4.8 C
593 24-04-2020 01:20:00 8.6 C 77 % 4.8 C
594 24-04-2020 01:25:00 8.5 C 76 % 4.52 C
595 24-04-2020 01:30:00 8.4 C 76 % 4.42 C
596 24-04-2020 01:35:00 8.4 C 77 % 4.61 C
597 24-04-2020 01:40:00 8.4 C 78 % 4.79 C
598 24-04-2020 01:45:00 8.4 C 78 % 4.79 C
599 24-04-2020 01:50:00 8.3 C 78 % 4.7 C
600 24-04-2020 01:55:00 8.2 C 78 % 4.6 C
Sensor: Nr:Datum:Temp:Feuchte:Taupunkt:
Aussen-T/F 601 24-04-2020 02:00:00 8.2 C 78 % 4.6 C
602 24-04-2020 02:05:00 8.1 C 79 % 4.68 C
603 24-04-2020 02:10:00 7.9 C 78 % 4.31 C
604 24-04-2020 02:15:00 7.8 C 78 % 4.21 C
605 24-04-2020 02:20:00 7.7 C 79 % 4.3 C
606 24-04-2020 02:25:00 7.7 C 80 % 4.47 C
607 24-04-2020 02:30:00 7.7 C 80 % 4.47 C
608 24-04-2020 02:35:00 7.7 C 81 % 4.65 C
609 24-04-2020 02:40:00 7.6 C 80 % 4.38 C
610 24-04-2020 02:45:00 7.4 C 80 % 4.18 C
611 24-04-2020 02:50:00 7.4 C 81 % 4.36 C
612 24-04-2020 02:55:00 7.3 C 82 % 4.44 C
613 24-04-2020 03:00:00 7.3 C 82 % 4.44 C
614 24-04-2020 03:05:00 7.3 C 82 % 4.44 C
615 24-04-2020 03:10:00 7.3 C 82 % 4.44 C
616 24-04-2020 03:15:00 7.2 C 82 % 4.34 C
617 24-04-2020 03:20:00 7.1 C 82 % 4.24 C
618 24-04-2020 03:25:00 6.9 C 83 % 4.22 C
619 24-04-2020 03:30:00 6.9 C 83 % 4.22 C
620 24-04-2020 03:35:00 6.8 C 83 % 4.12 C
621 24-04-2020 03:40:00 6.8 C 84 % 4.29 C
622 24-04-2020 03:45:00 6.7 C 84 % 4.19 C
623 24-04-2020 03:50:00 6.7 C 84 % 4.19 C
624 24-04-2020 03:55:00 6.7 C 84 % 4.19 C
625 24-04-2020 04:00:00 6.7 C 84 % 4.19 C
Sensor: Nr:Datum:Temp:Feuchte:Taupunkt:
Aussen-T/F 626 24-04-2020 04:05:00 6.6 C 84 % 4.1 C
627 24-04-2020 04:10:00 6.5 C 85 % 4.17 C
628 24-04-2020 04:15:00 6.5 C 85 % 4.17 C
629 24-04-2020 04:20:00 6.4 C 85 % 4.07 C
630 24-04-2020 04:25:00 6.3 C 85 % 3.97 C
631 24-04-2020 04:30:00 6.3 C 85 % 3.97 C
632 24-04-2020 04:35:00 6.3 C 86 % 4.14 C
633 24-04-2020 04:40:00 6.5 C 86 % 4.33 C
634 24-04-2020 04:45:00 6.6 C 86 % 4.43 C
635 24-04-2020 04:50:00 6.7 C 86 % 4.53 C
636 24-04-2020 04:55:00 6.7 C 85 % 4.36 C
637 24-04-2020 05:00:00 6.7 C 85 % 4.36 C
638 24-04-2020 05:05:00 6.6 C 85 % 4.26 C
639 24-04-2020 05:10:00 6.5 C 85 % 4.17 C
640 24-04-2020 05:15:00 6.4 C 85 % 4.07 C
641 24-04-2020 05:20:00 6.3 C 86 % 4.14 C
642 24-04-2020 05:25:00 6.3 C 86 % 4.14 C
643 24-04-2020 05:30:00 6.3 C 87 % 4.3 C
644 24-04-2020 05:35:00 6.3 C 87 % 4.3 C
645 24-04-2020 05:40:00 6.4 C 87 % 4.4 C
646 24-04-2020 05:45:00 6.4 C 87 % 4.4 C
647 24-04-2020 05:50:00 6.4 C 87 % 4.4 C
648 24-04-2020 05:55:00 6.4 C 87 % 4.4 C
649 24-04-2020 06:00:00 6.4 C 87 % 4.4 C
650 24-04-2020 06:05:00 6.4 C 87 % 4.4 C
Sensor: Nr:Datum:Temp:Feuchte:Taupunkt:
Aussen-T/F 651 24-04-2020 06:10:00 6.3 C 87 % 4.3 C
652 24-04-2020 06:15:00 6.3 C 87 % 4.3 C
653 24-04-2020 06:20:00 6.3 C 87 % 4.3 C
654 24-04-2020 06:25:00 6.4 C 87 % 4.4 C
655 24-04-2020 06:30:00 6.4 C 87 % 4.4 C
656 24-04-2020 06:35:00 6.4 C 87 % 4.4 C
657 24-04-2020 06:40:00 6.3 C 87 % 4.3 C
658 24-04-2020 06:45:00 6.4 C 87 % 4.4 C
659 24-04-2020 06:50:00 6.4 C 87 % 4.4 C
660 24-04-2020 06:55:00 6.4 C 87 % 4.4 C
661 24-04-2020 07:00:00 6.4 C 87 % 4.4 C
662 24-04-2020 07:05:00 6.4 C 87 % 4.4 C
663 24-04-2020 07:10:00 6.5 C 88 % 4.66 C
664 24-04-2020 07:15:00 6.5 C 88 % 4.66 C
665 24-04-2020 07:20:00 6.6 C 88 % 4.76 C
666 24-04-2020 07:25:00 6.6 C 88 % 4.76 C
667 24-04-2020 07:30:00 6.6 C 88 % 4.76 C
668 24-04-2020 07:35:00 6.6 C 88 % 4.76 C
669 24-04-2020 07:40:00 6.6 C 88 % 4.76 C
670 24-04-2020 07:45:00 6.7 C 88 % 4.86 C
671 24-04-2020 07:50:00 6.8 C 88 % 4.96 C
672 24-04-2020 07:55:00 6.8 C 88 % 4.96 C
673 24-04-2020 08:00:00 6.9 C 88 % 5.05 C
674 24-04-2020 08:05:00 6.9 C 88 % 5.05 C
675 24-04-2020 08:10:00 7.1 C 88 % 5.25 C
Sensor: Nr:Datum:Temp:Feuchte:Taupunkt:
Aussen-T/F 676 24-04-2020 08:15:00 7.2 C 88 % 5.35 C
677 24-04-2020 08:20:00 7.3 C 87 % 5.28 C
678 24-04-2020 08:25:00 7.6 C 87 % 5.58 C
679 24-04-2020 08:30:00 7.8 C 86 % 5.61 C
680 24-04-2020 08:35:00 8.1 C 85 % 5.73 C
681 24-04-2020 08:40:00 8.3 C 85 % 5.93 C
682 24-04-2020 08:45:00 8.7 C 85 % 6.32 C
683 24-04-2020 08:50:00 8.9 C 83 % 6.17 C
684 24-04-2020 08:55:00 9.2 C 83 % 6.47 C
685 24-04-2020 09:00:00 9.4 C 82 % 6.49 C
686 24-04-2020 09:05:00 9.6 C 80 % 6.32 C
687 24-04-2020 09:10:00 9.9 C 79 % 6.43 C
688 24-04-2020 09:15:00 10.1 C 78 % 6.44 C
689 24-04-2020 09:20:00 10.3 C 79 % 6.82 C
690 24-04-2020 09:25:00 10.6 C 78 % 6.93 C
691 24-04-2020 09:30:00 10.8 C 77 % 6.94 C
692 24-04-2020 09:35:00 11.1 C 77 % 7.23 C
693 24-04-2020 09:40:00 11.3 C 76 % 7.23 C
694 24-04-2020 09:45:00 11.4 C 75 % 7.13 C
695 24-04-2020 09:50:00 11.7 C 75 % 7.42 C
696 24-04-2020 09:55:00 11.8 C 75 % 7.52 C
697 24-04-2020 10:00:00 12.1 C 74 % 7.61 C
698 24-04-2020 10:05:00 12.2 C 73 % 7.51 C
699 24-04-2020 10:10:00 12.3 C 73 % 7.61 C
700 24-04-2020 10:15:00 12.3 C 72 % 7.4 C
Sensor: Nr:Datum:Temp:Feuchte:Taupunkt:
Aussen-T/F 701 24-04-2020 10:20:00 12.5 C 72 % 7.6 C
702 24-04-2020 10:25:00 12.7 C 72 % 7.79 C
703 24-04-2020 10:30:00 12.9 C 72 % 7.98 C
704 24-04-2020 10:35:00 13.2 C 71 % 8.06 C
705 24-04-2020 10:40:00 13.6 C 71 % 8.45 C
706 24-04-2020 10:45:00 13.8 C 69 % 8.22 C
707 24-04-2020 10:50:00 13.9 C 70 % 8.53 C
708 24-04-2020 10:55:00 14.2 C 68 % 8.39 C
709 24-04-2020 11:00:00 14.3 C 67 % 8.26 C
710 24-04-2020 11:05:00 14.6 C 67 % 8.55 C
711 24-04-2020 11:10:00 14.7 C 66 % 8.42 C
712 24-04-2020 11:15:00 14.8 C 67 % 8.74 C
713 24-04-2020 11:20:00 15 C 65 % 8.48 C
714 24-04-2020 11:25:00 15.2 C 65 % 8.67 C
715 24-04-2020 11:30:00 15.3 C 64 % 8.54 C
716 24-04-2020 11:35:00 15.4 C 63 % 8.4 C
717 24-04-2020 11:40:00 15.6 C 64 % 8.82 C
718 24-04-2020 11:45:00 15.7 C 63 % 8.68 C
719 24-04-2020 11:50:00 15.9 C 62 % 8.64 C
720 24-04-2020 11:55:00 16.1 C 62 % 8.82 C
721 24-04-2020 12:00:00 16.2 C 62 % 8.92 C
722 24-04-2020 12:05:00 16.4 C 63 % 9.35 C
723 24-04-2020 12:10:00 16.6 C 62 % 9.3 C
724 24-04-2020 12:15:00 16.9 C 60 % 9.09 C
725 24-04-2020 12:20:00 17.3 C 63 % 10.2 C
Sensor: Nr:Datum:Temp:Feuchte:Taupunkt:
Aussen-T/F 726 24-04-2020 12:25:00 17.7 C 58 % 9.34 C
727 24-04-2020 12:30:00 17.9 C 55 % 8.74 C
728 24-04-2020 12:35:00 18.1 C 56 % 9.19 C
729 24-04-2020 12:40:00 18.2 C 55 % 9.02 C
730 24-04-2020 12:45:00 18.3 C 51 % 8 C
731 24-04-2020 12:50:00 18.6 C 52 % 8.56 C
732 24-04-2020 12:55:00 18.8 C 49 % 7.87 C
733 24-04-2020 13:00:00 19.2 C 47 % 7.63 C
734 24-04-2020 13:05:00 19.3 C 48 % 8.03 C
735 24-04-2020 13:10:00 19.4 C 46 % 7.49 C
736 24-04-2020 13:15:00 19.7 C 44 % 7.12 C
737 24-04-2020 13:20:00 20 C 42 % 6.71 C
738 24-04-2020 13:25:00 20.1 C 39 % 5.73 C
739 24-04-2020 13:30:00 20.2 C 38 % 5.44 C
740 24-04-2020 13:35:00 20.2 C 40 % 6.18 C
741 24-04-2020 13:40:00 20.3 C 39 % 5.9 C
742 24-04-2020 13:45:00 20.5 C 38 % 5.71 C
743 24-04-2020 13:50:00 20.7 C 38 % 5.89 C
744 24-04-2020 13:55:00 20.7 C 39 % 6.26 C
745 24-04-2020 14:00:00 20.8 C 40 % 6.72 C
746 24-04-2020 14:05:00 21.1 C 41 % 7.35 C
747 24-04-2020 14:10:00 21.1 C 40 % 6.99 C
748 24-04-2020 14:15:00 21.1 C 40 % 6.99 C
749 24-04-2020 14:20:00 21.2 C 41 % 7.44 C
750 24-04-2020 14:25:00 21.4 C 41 % 7.62 C
Sensor: Nr:Datum:Temp:Feuchte:Taupunkt:
Aussen-T/F 751 24-04-2020 14:30:00 21.4 C 41 % 7.62 C
752 24-04-2020 14:35:00 21.4 C 42 % 7.97 C
753 24-04-2020 14:40:00 21.5 C 42 % 8.06 C
754 24-04-2020 14:45:00 21.6 C 42 % 8.15 C
755 24-04-2020 14:50:00 21.6 C 42 % 8.15 C
756 24-04-2020 14:55:00 21.7 C 41 % 7.88 C
757 24-04-2020 15:00:00 21.7 C 42 % 8.24 C
758 24-04-2020 15:05:00 21.8 C 40 % 7.61 C
759 24-04-2020 15:10:00 21.9 C 41 % 8.06 C
760 24-04-2020 15:15:00 21.9 C 39 % 7.33 C
761 24-04-2020 15:20:00 22 C 39 % 7.42 C
762 24-04-2020 15:25:00 21.9 C 38 % 6.95 C
763 24-04-2020 15:30:00 22 C 37 % 6.65 C
764 24-04-2020 15:35:00 22.1 C 36 % 6.34 C
765 24-04-2020 15:40:00 22.2 C 36 % 6.43 C
766 24-04-2020 15:45:00 22.3 C 36 % 6.52 C
767 24-04-2020 15:50:00 22.4 C 35 % 6.2 C
768 24-04-2020 15:55:00 22.6 C 34 % 5.96 C
769 24-04-2020 16:00:00 22.6 C 34 % 5.96 C
770 24-04-2020 16:05:00 22.5 C 35 % 6.29 C
771 24-04-2020 16:10:00 22.6 C 34 % 5.96 C
772 24-04-2020 16:15:00 22.7 C 33 % 5.61 C
773 24-04-2020 16:20:00 22.8 C 33 % 5.7 C
774 24-04-2020 16:25:00 22.8 C 31 % 4.8 C
775 24-04-2020 16:30:00 22.9 C 30 % 4.42 C
Sensor: Nr:Datum:Temp:Feuchte:Taupunkt:
Aussen-T/F 776 24-04-2020 16:35:00 23.1 C 32 % 5.52 C
777 24-04-2020 16:40:00 23.2 C 30 % 4.68 C
778 24-04-2020 16:45:00 23.1 C 29 % 4.11 C
779 24-04-2020 16:50:00 22.9 C 31 % 4.89 C
780 24-04-2020 16:55:00 22.9 C 30 % 4.42 C
781 24-04-2020 17:00:00 22.8 C 31 % 4.8 C
782 24-04-2020 17:05:00 22.6 C 31 % 4.63 C
783 24-04-2020 17:10:00 22.6 C 32 % 5.08 C
784 24-04-2020 17:15:00 22.6 C 30 % 4.16 C
785 24-04-2020 17:20:00 22.6 C 29 % 3.68 C
786 24-04-2020 17:25:00 22.7 C 29 % 3.77 C
787 24-04-2020 17:30:00 22.8 C 29 % 3.85 C
788 24-04-2020 17:35:00 22.7 C 28 % 3.27 C
789 24-04-2020 17:40:00 22.4 C 29 % 3.51 C
790 24-04-2020 17:45:00 22.2 C 30 % 3.82 C
791 24-04-2020 17:50:00 22.2 C 30 % 3.82 C
792 24-04-2020 17:55:00 22.4 C 30 % 3.99 C
793 24-04-2020 18:00:00 22.4 C 31 % 4.46 C
794 24-04-2020 18:05:00 22.1 C 31 % 4.2 C
795 24-04-2020 18:10:00 21.9 C 31 % 4.02 C
796 24-04-2020 18:15:00 21.7 C 33 % 4.74 C
797 24-04-2020 18:20:00 21.4 C 34 % 4.91 C
798 24-04-2020 18:25:00 21.4 C 35 % 5.32 C
799 24-04-2020 18:30:00 21.6 C 37 % 6.3 C
800 24-04-2020 18:35:00 21.6 C 37 % 6.3 C
Sensor: Nr:Datum:Temp:Feuchte:Taupunkt:
Aussen-T/F 801 24-04-2020 18:40:00 21.4 C 38 % 6.51 C
802 24-04-2020 18:45:00 21.3 C 38 % 6.42 C
803 24-04-2020 18:50:00 21.2 C 39 % 6.71 C
804 24-04-2020 18:55:00 21.1 C 39 % 6.62 C
805 24-04-2020 19:00:00 21.1 C 39 % 6.62 C
806 24-04-2020 19:05:00 20.9 C 39 % 6.44 C
807 24-04-2020 19:10:00 20.8 C 39 % 6.35 C
808 24-04-2020 19:15:00 20.7 C 40 % 6.63 C
809 24-04-2020 19:20:00 20.5 C 40 % 6.45 C
810 24-04-2020 19:25:00 20.4 C 41 % 6.72 C
811 24-04-2020 19:30:00 20.3 C 41 % 6.63 C
812 24-04-2020 19:35:00 20.1 C 42 % 6.8 C
813 24-04-2020 19:40:00 19.9 C 43 % 6.96 C
814 24-04-2020 19:45:00 19.8 C 43 % 6.87 C
815 24-04-2020 19:50:00 19.7 C 43 % 6.78 C
816 24-04-2020 19:55:00 19.6 C 44 % 7.03 C
817 24-04-2020 20:00:00 19.4 C 45 % 7.17 C
818 24-04-2020 20:05:00 19.2 C 45 % 6.99 C
819 24-04-2020 20:10:00 19.1 C 44 % 6.57 C
820 24-04-2020 20:15:00 18.9 C 46 % 7.04 C
821 24-04-2020 20:20:00 18.7 C 47 % 7.17 C
822 24-04-2020 20:25:00 18.3 C 47 % 6.8 C
823 24-04-2020 20:30:00 18.2 C 48 % 7.02 C
824 24-04-2020 20:35:00 17.8 C 50 % 7.25 C
825 24-04-2020 20:40:00 17.5 C 50 % 6.97 C
Sensor: Nr:Datum:Temp:Feuchte:Taupunkt:
Aussen-T/F 826 24-04-2020 20:45:00 17.2 C 50 % 6.7 C
827 24-04-2020 20:50:00 16.9 C 51 % 6.71 C
828 24-04-2020 20:55:00 16.7 C 52 % 6.81 C
829 24-04-2020 21:00:00 16.4 C 52 % 6.53 C
830 24-04-2020 21:05:00 16.3 C 53 % 6.71 C
831 24-04-2020 21:10:00 16.2 C 53 % 6.62 C
832 24-04-2020 21:15:00 16 C 52 % 6.16 C
833 24-04-2020 21:20:00 15.8 C 53 % 6.25 C
834 24-04-2020 21:25:00 15.7 C 54 % 6.43 C
835 24-04-2020 21:30:00 15.6 C 53 % 6.06 C
836 24-04-2020 21:35:00 15.6 C 54 % 6.34 C
837 24-04-2020 21:40:00 15.7 C 54 % 6.43 C
838 24-04-2020 21:45:00 15.6 C 53 % 6.06 C
839 24-04-2020 21:50:00 15.5 C 55 % 6.51 C
840 24-04-2020 21:55:00 15.3 C 55 % 6.32 C
841 24-04-2020 22:00:00 15.2 C 55 % 6.23 C
842 24-04-2020 22:05:00 15.1 C 55 % 6.14 C
843 24-04-2020 22:10:00 15 C 56 % 6.3 C
844 24-04-2020 22:15:00 14.8 C 56 % 6.12 C
845 24-04-2020 22:20:00 14.7 C 57 % 6.28 C
846 24-04-2020 22:25:00 14.6 C 54 % 5.41 C
847 24-04-2020 22:30:00 14.6 C 56 % 5.93 C
848 24-04-2020 22:35:00 14.6 C 55 % 5.67 C
849 24-04-2020 22:40:00 14.6 C 56 % 5.93 C
850 24-04-2020 22:45:00 14.4 C 56 % 5.74 C
Sensor: Nr:Datum:Temp:Feuchte:Taupunkt:
Aussen-T/F 851 24-04-2020 22:50:00 14.2 C 56 % 5.56 C
852 24-04-2020 22:55:00 13.9 C 57 % 5.53 C
853 24-04-2020 23:00:00 13.7 C 56 % 5.09 C
854 24-04-2020 23:05:00 13.5 C 57 % 5.16 C
855 24-04-2020 23:10:00 13.3 C 53 % 3.93 C
856 24-04-2020 23:15:00 13.3 C 56 % 4.72 C
857 24-04-2020 23:20:00 13.2 C 52 % 3.57 C
858 24-04-2020 23:25:00 13.1 C 53 % 3.75 C
859 24-04-2020 23:30:00 12.9 C 52 % 3.29 C
860 24-04-2020 23:35:00 12.8 C 50 % 2.65 C
861 24-04-2020 23:40:00 12.9 C 51 % 3.02 C
862 24-04-2020 23:45:00 12.9 C 51 % 3.02 C
863 24-04-2020 23:50:00 12.9 C 53 % 3.56 C
864 24-04-2020 23:55:00 12.8 C 50 % 2.65 C

Legende:
   Min
   Max


Maximal/Minimal-Werte vom 22.04.2020 - 24.04.2020

Sensor Min Max Avg
Temp
(Aussen-T/F)
5.9 °C
23-04-2020  07:20:00
25.8 °C
23-04-2020  18:30:00
14.16 °C
Feuchte
(Aussen-T/F)
25 %
23-04-2020  18:00:00
88 %
24-04-2020  07:10:00
56.69 %
Taupunkt
(Aussen-T/F)
1.75 C
22-04-2020  12:40:00
14.2 C
23-04-2020  19:35:00
4.62 C

Die Daten stammen von einer Davis Vantage Pro 2 Wetter-Station und werden unter Linux mit der Software wview2wettercgi und aufbereitet. Alle Angaben erfolgen ohne Gewähr für ihre Vollständigkeit oder Richtigkeit.
Kontakt: Rainer Krienke krienke@uni-koblenz.de . Meine Webseiten an der Uni Koblenz oder privat.
Version: $Revision: 0.78 $